Wind_Speed
17 17 17 18 15 11 10 9 9 8 8 8 8 8 8 9 9 10 10 11 10 10 10 9 9 8 8 8 8 8 8 7 7 7 7 7 7 7 7 6 6 6 6 5 6 5 6 6 6
16 15 17 16 12 10 10 9 8 7 7 8 8 8 8 8 9 9 10 10 9 9 9 8 8 8 8 7 7 7 7 7 7 7 7 6 7 6 6 6 6 5 5 5 5 5 5 5 5
15 15 17 12 8 9 9 9 8 7 7 7 8 8 8 8 9 9 9 9 9 8 8 7 7 7 7 7 6 6 6 6 6 6 6 6 6 5 5 5 5 6 5 5 5 5 5 5 5
14 17 14 10 8 9 9 8 7 7 7 7 7 7 8 8 8 8 8 8 8 8 7 7 6 7 7 7 6 6 6 6 6 6 6 6 6 5 6 6 6 5 5 5 5 5 5 5 4
14 16 10 7 8 8 8 8 7 7 7 7 7 6 7 8 8 8 8 7 7 7 7 6 6 6 6 6 6 6 6 6 6 6 6 6 6 6 6 6 6 6 6 5 5 4 4 4 4
14 11 7 7 7 7 7 7 7 7 6 6 6 6 6 7 7 7 7 7 7 6 6 6 6 6 5 5 5 5 5 5 6 6 6 6 6 6 6 6 7 6 6 6 6 5 5 4 4
11 9 5 5 6 6 6 6 6 6 5 5 5 5 5 5 6 5 6 6 6 6 6 6 5 5 5 5 5 5 5 5 5 5 5 5 5 5 5 6 6 6 6 5 5 5 4 4 4
9 8 5 3 4 5 5 5 6 6 5 5 5 5 5 5 5 5 4 5 5 5 6 5 5 5 5 5 5 5 4 4 5 5 5 6 5 4 4 5 5 4 4 5 4 4 4 4 3
7 7 4 2 3 4 4 5 6 7 5 5 5 5 5 5 4 4 4 4 4 4 5 5 6 5 5 5 5 5 5 5 5 5 6 6 6 5 4 4 4 4 3 3 3 4 4 3 3
4 4 2 1 3 3 4 5 5 6 6 6 5 5 4 4 4 4 4 4 4 4 4 5 5 5 5 5 5 5 5 5 5 5 5 5 6 4 4 4 4 3 3 3 3 3 3 2 2
3 3 1 2 2 3 4 5 5 6 5 5 5 4 4 4 4 4 4 4 4 4 4 5 5 4 4 4 5 5 5 6 5 5 5 5 5 4 4 4 4 4 3 2 3 3 2 1 1
2 2 1 1 2 3 4 5 4 4 5 5 4 4 4 4 5 5 4 4 4 4 4 5 5 5 5 5 6 6 6 6 5 5 5 5 4 4 3 4 4 4 3 3 3 3 2 2 2
3 2 0 1 3 3 4 4 5 5 5 5 5 4 5 5 5 5 4 4 5 5 5 5 5 5 6 7 7 7 7 7 6 5 5 4 4 3 3 4 4 4 4 3 3 3 2 3 2
4 2 1 2 3 3 3 3 4 5 6 6 6 6 6 6 6 5 6 5 5 5 6 6 6 7 7 7 7 6 7 7 6 6 5 4 4 4 3 4 5 5 4 3 4 3 3 3 2
6 3 2 3 3 3 3 3 4 5 5 6 7 8 7 7 6 5 6 6 6 6 6 7 7 7 7 7 7 7 7 8 7 6 6 5 4 4 4 4 4 4 4 4 4 4 4 4 3
6 4 3 3 3 4 4 3 5 5 5 6 6 7 8 8 8 7 7 7 7 7 7 8 8 8 8 7 7 7 8 8 8 7 7 6 5 4 5 5 5 4 4 4 4 4 4 4 4
7 6 5 5 4 4 5 4 4 5 5 6 6 6 7 7 8 8 7 7 7 7 7 8 9 9 8 8 8 8 9 9 9 8 8 8 7 6 5 6 6 5 5 5 5 5 5 5 5
7 6 7 6 6 5 5 5 5 5 5 6 6 6 7 7 8 8 8 8 7 7 7 8 10 9 8 8 8 8 8 9 10 10 9 8 8 8 7 7 7 6 6 6 6 6 5 4 4
9 9 9 8 8 6 5 6 6 7 6 7 7 7 7 7 8 8 8 8 8 8 7 9 10 10 9 9 8 8 8 9 9 9 9 8 8 8 7 8 8 7 7 6 6 6 5 5 4
14 12 10 8 10 8 7 7 7 8 8 8 8 8 8 7 8 7 8 8 8 8 8 9 9 10 10 9 9 9 9 8 8 9 9 9 8 8 8 8 8 8 7 7 7 6 6 6 5
15 13 11 11 11 11 10 10 9 9 8 9 9 9 8 8 8 8 8 8 8 8 8 9 9 9 9 9 9 9 9 9 9 9 9 10 9 9 8 8 8 8 8 7 7 6 6 6 6
17 15 14 12 12 11 11 11 11 12 10 9 9 9 8 8 8 8 8 8 8 8 8 8 9 9 9 10 10 9 9 9 9 10 10 10 10 10 9 8 8 9 8 7 7 7 7 7 7
18 15 14 13 13 13 12 12 12 13 12 9 9 9 8 8 8 8 8 8 8 8 8 9 9 9 9 9 10 10 10 10 10 11 10 10 11 12 11 9 8 8 8 8 8 7 8 7 7
19 17 15 14 15 17 16 14 13 12 10 8 8 9 8 7 8 8 8 8 8 9 9 10 9 9 9 10 11 10 10 11 11 11 11 11 11 12 12 10 9 8 8 9 8 7 8 7 7
20 19 16 17 17 17 15 15 15 13 12 10 10 9 9 8 8 8 8 9 9 9 10 10 10 9 10 11 11 11 11 11 11 11 10 11 12 12 11 11 10 9 9 8 8 8 8 8 8
21 20 19 16 14 15 15 16 15 14 15 14 13 11 10 9 9 9 9 9 9 10 10 10 10 10 11 11 11 12 12 11 11 11 11 11 12 12 12 11 11 10 10 10 9 9 8 8 8
22 22 19 16 15 14 14 15 16 15 16 15 15 12 11 11 11 10 10 10 10 11 11 11 11 11 11 11 12 12 12 12 12 12 12 12 12 12 12 12 11 11 11 10 9 8 8 9 9
23 21 20 20 19 16 15 14 15 16 14 14 14 14 14 12 11 11 11 11 11 12 12 12 12 12 12 12 13 13 13 13 13 13 13 13 13 14 14 14 13 12 12 11 10 9 9 10 10
24 22 20 20 19 17 14 14 16 17 17 16 14 14 15 14 13 13 13 12 12 12 13 13 13 13 13 14 14 14 13 13 13 14 14 14 14 14 15 15 14 13 12 11 10 10 10 10 10
23 22 21 21 21 18 17 17 15 15 17 16 15 15 15 15 15 14 14 14 13 13 13 13 14 14 14 15 15 14 14 14 14 15 15 15 15 16 16 16 15 14 13 12 11 11 11 11 11
Wind_Direction
74 73 70 65 61 61 62 64 69 74 81 80 80 81 84 86 91 94 94 92 90 87 84 80 79 75 72 72 76 75 77 76 77 73 73 78 83 83 82 81 82 85 82 83 86 87 89 87 90
76 71 67 63 57 52 58 57 62 71 77 78 78 80 84 89 93 94 96 93 91 87 83 78 74 71 68 68 70 73 75 73 73 71 69 74 76 83 79 80 82 80 77 78 82 91 89 87 94
78 70 65 57 47 49 58 58 56 63 71 77 78 79 87 92 95 95 95 92 89 87 81 71 67 66 66 64 65 71 69 69 70 69 67 69 74 82 77 75 79 78 74 75 86 90 85 85 91
83 72 59 47 42 47 56 56 60 60 63 71 77 81 85 92 96 97 94 90 88 84 77 69 68 68 65 64 67 66 65 63 64 68 67 63 66 74 74 72 77 81 78 79 81 82 81 84 87
80 70 56 40 39 44 51 56 59 59 58 65 74 80 84 89 93 95 92 89 86 80 74 68 66 65 62 62 65 65 62 59 60 64 67 67 66 65 69 71 73 74 79 79 81 83 84 83 84
70 63 49 36 38 41 50 52 53 57 60 63 69 76 83 88 88 88 86 85 80 75 71 62 56 57 59 60 62 61 56 52 50 54 58 66 69 69 68 64 63 68 75 80 80 79 80 86 90
77 78 59 33 27 35 41 46 47 50 57 55 57 62 77 80 80 73 71 74 69 67 62 52 54 56 57 60 56 51 45 42 39 43 42 48 58 62 63 61 65 71 76 80 76 73 78 84 86
93 87 72 20 29 33 37 41 38 41 43 46 53 56 63 68 68 64 65 72 60 55 49 41 47 52 54 51 44 36 32 34 34 38 39 39 38 42 56 68 68 70 76 77 76 78 83 81 86
87 84 85 15 10 32 34 30 30 35 36 48 49 58 60 54 52 58 62 61 53 47 41 40 43 44 43 40 32 25 23 24 28 36 37 38 39 47 51 59 62 61 71 75 73 75 74 74 85
85 71 101 357 358 16 22 25 26 31 33 35 40 49 51 46 50 55 47 39 36 32 29 34 33 31 28 27 22 15 17 14 22 35 38 37 36 45 52 44 46 48 52 56 52 56 53 66 68
98 83 59 330 355 9 15 16 26 20 22 29 30 36 42 38 46 42 32 28 30 29 26 27 26 20 13 14 18 15 14 19 25 21 23 26 28 39 42 33 33 35 34 38 36 37 19 22 1
118 112 148 329 344 0 14 9 17 17 15 20 32 34 36 31 46 44 35 36 28 25 25 24 18 7 0 4 14 15 13 15 17 14 10 13 15 21 16 18 12 7 0 357 13 12 358 337 338
178 145 179 327 334 0 5 10 17 24 29 25 26 35 34 33 42 40 36 28 24 19 16 18 11 9 13 14 14 19 13 9 6 0 354 359 6 10 6 4 6 1 353 4 359 358 351 340 339
183 170 286 320 334 352 358 8 15 19 25 21 21 33 33 29 29 32 32 29 22 20 18 12 359 1 10 12 11 12 6 1 360 350 347 356 355 347 344 349 355 359 358 4 351 348 347 342 340
181 193 261 309 326 339 354 351 4 10 12 14 16 23 27 24 19 19 23 23 19 15 11 7 8 3 1 3 3 2 1 359 357 353 355 351 343 336 334 334 348 354 351 351 346 334 326 316 315
187 189 218 277 286 305 321 345 1 1 4 6 7 18 23 25 21 18 19 17 14 9 5 2 4 357 353 354 356 358 2 359 2 358 353 348 341 333 329 334 341 344 342 337 338 335 317 310 314
206 186 212 250 272 291 316 334 344 349 349 350 355 3 12 15 12 12 10 4 359 357 354 353 352 353 356 354 351 353 355 354 356 355 347 343 341 332 322 321 328 331 335 333 332 332 323 311 314
210 208 232 246 270 277 292 306 319 326 328 330 339 349 356 3 3 1 1 360 355 351 350 349 349 352 351 352 348 350 353 352 350 351 351 349 343 339 328 323 327 326 327 326 325 327 323 313 311
202 217 233 242 256 263 274 284 295 310 316 313 322 336 344 349 354 354 353 356 356 353 351 350 349 348 347 347 348 347 346 345 348 352 355 352 349 344 335 331 327 324 322 321 324 320 313 310 307
209 214 222 236 250 254 264 272 284 295 308 310 313 318 329 340 348 352 348 349 351 351 352 351 351 348 347 346 347 345 347 351 352 352 356 354 348 342 340 334 329 323 320 316 316 315 308 304 304
215 215 216 225 244 257 262 259 268 281 291 298 305 311 319 330 341 343 343 341 342 344 347 347 347 347 345 345 347 348 345 343 346 348 347 346 346 341 332 334 335 329 324 319 322 325 318 310 306
218 216 216 223 240 256 270 269 272 280 283 291 296 298 309 321 332 337 339 338 337 338 339 342 344 347 344 341 344 344 342 340 340 342 341 342 342 342 338 335 335 336 331 326 324 323 319 315 314
215 219 222 221 232 241 255 262 265 275 274 289 297 296 300 308 318 327 335 336 334 334 336 336 336 340 340 339 340 342 339 336 335 337 337 339 338 335 333 328 326 331 331 325 324 320 322 319 318
217 215 222 228 233 241 243 249 258 263 269 280 291 292 293 300 306 319 325 330 332 333 334 336 337 338 339 340 339 338 336 335 335 335 334 336 340 338 333 327 329 327 327 324 325 322 324 320 314
217 215 222 234 238 242 245 248 254 255 266 261 264 276 288 295 298 307 315 319 325 329 333 334 336 335 334 334 336 337 335 334 334 335 336 336 338 340 337 336 333 331 328 328 323 319 320 320 313
218 217 221 229 236 246 244 245 249 248 256 256 258 264 272 281 287 291 298 306 316 323 328 332 333 332 333 333 334 334 334 333 332 331 331 332 335 337 336 333 333 329 327 323 320 315 316 317 314
219 220 221 228 228 240 238 244 247 253 256 256 257 259 268 277 286 290 295 299 305 311 317 322 327 328 327 327 330 331 331 331 331 330 328 327 328 330 331 330 328 326 325 326 320 315 315 313 310
218 222 220 225 230 234 234 237 250 252 259 261 259 261 267 274 278 282 290 294 299 304 308 312 316 321 321 321 322 325 327 325 324 324 323 324 324 324 324 323 322 321 321 318 318 314 313 313 312
216 216 220 229 231 232 236 233 242 252 260 261 262 262 264 268 274 279 283 288 294 298 300 304 309 313 315 317 317 318 319 320 320 320 321 321 321 321 322 322 323 320 319 320 315 314 313 310 307
219 219 220 225 228 229 237 244 246 247 256 264 263 266 266 265 271 275 277 283 289 295 298 302 305 308 310 312 312 313 313 312 313 313 314 315 316 317 317 318 319 316 314 314 314 311 308 307 304
Height
5902 5902 5901 5901 5901 5901 5901 5900 5900 5899 5898 5898 5897 5896 5896 5896 5897 5898 5895 5894 5895 5895 5894 5894 5894 5894 5894 5893 5893 5893 5892 5892 5891 5890 5890 5890 5890 5890 5890 5890 5890 5890 5890 5890 5889 5890 5890 5890 5891
5905 5904 5903 5903 5904 5903 5903 5902 5902 5901 5900 5899 5899 5899 5898 5898 5898 5897 5897 5896 5897 5897 5896 5896 5896 5896 5896 5895 5895 5894 5894 5894 5893 5892 5892 5891 5891 5891 5891 5891 5891 5891 5891 5890 5890 5891 5891 5891 5892
5906 5906 5905 5907 5907 5906 5906 5905 5904 5903 5902 5901 5901 5901 5901 5900 5900 5899 5899 5899 5899 5899 5898 5898 5898 5897 5897 5897 5896 5896 5896 5895 5895 5894 5893 5893 5892 5892 5892 5892 5891 5891 5892 5892 5891 5892 5892 5892 5892
5908 5908 5910 5911 5910 5908 5908 5907 5905 5905 5904 5903 5904 5903 5902 5902 5902 5901 5901 5901 5901 5900 5900 5900 5899 5899 5898 5898 5898 5898 5897 5897 5896 5896 5895 5895 5894 5894 5893 5893 5892 5893 5893 5893 5892 5893 5893 5893 5893
5909 5909 5913 5913 5912 5911 5910 5909 5907 5907 5906 5906 5906 5905 5904 5904 5903 5903 5902 5902 5902 5902 5901 5901 5900 5900 5900 5899 5899 5899 5899 5898 5898 5897 5897 5896 5896 5895 5895 5894 5894 5894 5894 5894 5894 5894 5894 5894 5894
5911 5913 5915 5914 5914 5913 5912 5911 5910 5909 5908 5908 5908 5907 5906 5906 5905 5905 5904 5904 5904 5903 5903 5902 5902 5901 5901 5900 5900 5900 5900 5899 5899 5898 5898 5897 5897 5896 5896 5896 5895 5895 5895 5895 5895 5895 5895 5895 5895
5915 5916 5917 5917 5916 5915 5914 5913 5912 5911 5910 5910 5909 5909 5908 5908 5907 5907 5906 5906 5905 5905 5905 5904 5903 5902 5902 5901 5901 5901 5901 5900 5900 5899 5899 5898 5898 5897 5897 5897 5896 5896 5896 5896 5896 5896 5895 5895 5895
5917 5918 5919 5918 5918 5916 5916 5914 5913 5913 5912 5911 5911 5911 5910 5910 5909 5908 5908 5907 5907 5907 5906 5905 5904 5904 5903 5903 5903 5903 5902 5901 5901 5900 5900 5900 5899 5898 5898 5897 5897 5897 5897 5897 5897 5897 5896 5896 5896
5920 5921 5921 5920 5919 5918 5917 5916 5915 5914 5913 5912 5912 5912 5912 5911 5910 5910 5909 5909 5908 5908 5907 5906 5906 5905 5905 5904 5904 5904 5903 5902 5902 5901 5901 5900 5900 5899 5898 5898 5898 5898 5898 5898 5898 5898 5897 5897 5897
5921 5921 5921 5921 5920 5919 5918 5917 5916 5916 5915 5914 5914 5913 5912 5912 5911 5911 5910 5910 5909 5909 5908 5908 5907 5907 5906 5906 5905 5905 5904 5903 5903 5903 5902 5902 5901 5901 5900 5899 5899 5899 5899 5899 5898 5898 5898 5898 5897
5922 5922 5922 5921 5921 5921 5920 5919 5918 5917 5916 5916 5915 5914 5914 5913 5913 5912 5911 5911 5911 5910 5909 5909 5909 5908 5908 5907 5906 5906 5905 5904 5904 5904 5903 5903 5902 5901 5901 5900 5900 5900 5899 5899 5899 5899 5898 5898 5898
5923 5923 5923 5923 5922 5922 5921 5920 5919 5919 5918 5917 5916 5915 5915 5914 5913 5913 5913 5912 5912 5911 5911 5910 5910 5910 5909 5909 5908 5907 5907 5906 5905 5904 5904 5903 5903 5902 5902 5901 5901 5900 5900 5900 5899 5899 5899 5899 5898
5923 5923 5923 5923 5923 5923 5922 5922 5921 5920 5919 5918 5917 5916 5916 5915 5914 5914 5914 5913 5913 5912 5912 5911 5911 5910 5910 5909 5909 5908 5907 5906 5906 5905 5904 5903 5903 5902 5902 5902 5901 5901 5900 5900 5900 5899 5899 5899 5898
5924 5924 5924 5924 5923 5923 5923 5923 5922 5921 5921 5919 5918 5917 5917 5916 5916 5915 5915 5914 5914 5913 5913 5912 5912 5911 5911 5910 5910 5909 5908 5907 5906 5905 5904 5904 5903 5903 5902 5902 5901 5901 5900 5900 5900 5899 5899 5899 5898
5923 5924 5925 5924 5924 5924 5924 5924 5923 5923 5922 5921 5920 5919 5919 5918 5917 5917 5916 5915 5915 5914 5914 5914 5913 5912 5911 5911 5910 5910 5909 5907 5906 5905 5904 5903 5903 5903 5902 5902 5901 5900 5900 5900 5899 5899 5899 5898 5898
5922 5924 5925 5926 5925 5925 5926 5924 5924 5923 5923 5922 5921 5920 5920 5919 5918 5918 5917 5916 5916 5915 5915 5915 5914 5913 5912 5911 5911 5910 5909 5908 5907 5905 5904 5903 5903 5903 5902 5902 5901 5900 5900 5899 5899 5899 5898 5898 5897
5922 5924 5925 5926 5926 5926 5925 5925 5925 5924 5924 5923 5923 5922 5921 5920 5919 5919 5918 5917 5917 5916 5916 5915 5914 5913 5912 5912 5911 5910 5909 5908 5907 5906 5905 5904 5903 5902 5902 5901 5900 5900 5899 5899 5898 5898 5897 5897 5897
5922 5924 5926 5926 5926 5926 5926 5926 5926 5925 5925 5924 5923 5922 5921 5921 5920 5919 5919 5918 5917 5917 5916 5916 5915 5914 5913 5912 5912 5911 5910 5909 5907 5906 5905 5904 5903 5902 5902 5901 5900 5899 5899 5898 5898 5897 5896 5896 5895
5922 5925 5926 5926 5926 5927 5926 5926 5926 5925 5925 5925 5924 5923 5922 5921 5921 5920 5919 5918 5918 5917 5916 5916 5915 5914 5913 5912 5912 5911 5910 5909 5908 5906 5905 5904 5903 5902 5901 5900 5899 5898 5898 5897 5897 5896 5896 5895 5895
5920 5923 5925 5926 5926 5926 5926 5926 5926 5925 5925 5924 5924 5923 5922 5921 5921 5920 5919 5919 5918 5917 5916 5916 5915 5914 5913 5912 5911 5911 5910 5909 5907 5906 5905 5904 5902 5902 5901 5899 5898 5897 5897 5897 5896 5895 5895 5894 5894
5918 5921 5923 5925 5924 5924 5926 5926 5926 5925 5924 5924 5923 5922 5922 5921 5921 5920 5919 5919 5918 5917 5916 5915 5914 5913 5912 5912 5911 5910 5909 5908 5907 5906 5905 5903 5902 5901 5900 5898 5897 5896 5896 5896 5895 5895 5894 5893 5893
5915 5919 5921 5923 5923 5923 5924 5924 5924 5924 5923 5923 5923 5922 5921 5921 5920 5920 5919 5918 5918 5917 5916 5915 5914 5913 5912 5911 5910 5909 5908 5908 5907 5906 5905 5903 5902 5901 5899 5898 5896 5896 5895 5895 5894 5894 5893 5892 5892
5913 5916 5919 5920 5921 5923 5923 5924 5924 5921 5921 5922 5922 5921 5921 5921 5920 5919 5919 5918 5917 5916 5916 5915 5914 5912 5912 5911 5910 5909 5908 5907 5906 5905 5904 5903 5901 5899 5898 5896 5895 5894 5894 5894 5893 5893 5892 5891 5891
5909 5913 5915 5917 5918 5920 5921 5922 5922 5920 5919 5920 5921 5920 5920 5920 5919 5919 5918 5918 5917 5916 5915 5914 5913 5912 5911 5910 5909 5908 5907 5906 5905 5904 5903 5902 5900 5898 5896 5895 5893 5893 5893 5892 5892 5891 5891 5890 5889
5906 5910 5912 5914 5915 5916 5919 5919 5920 5920 5918 5918 5919 5919 5919 5919 5919 5919 5918 5917 5917 5916 5915 5914 5913 5912 5911 5910 5908 5907 5906 5905 5904 5903 5902 5901 5899 5897 5895 5894 5893 5892 5892 5891 5890 5889 5889 5889 5888
5903 5906 5910 5912 5913 5914 5915 5917 5918 5918 5917 5917 5917 5917 5918 5918 5918 5918 5917 5916 5916 5915 5914 5913 5912 5911 5910 5909 5908 5907 5905 5904 5903 5902 5901 5900 5898 5896 5895 5894 5892 5891 5890 5889 5888 5888 5887 5887 5886
5899 5902 5906 5909 5910 5912 5913 5914 5913 5913 5915 5915 5915 5914 5916 5916 5916 5916 5916 5915 5915 5914 5913 5912 5911 5910 5909 5908 5907 5906 5904 5903 5902 5901 5899 5898 5897 5896 5894 5893 5891 5890 5888 5887 5886 5886 5885 5885 5884
5896 5899 5902 5904 5906 5908 5909 5911 5910 5909 5911 5911 5912 5913 5913 5914 5914 5914 5914 5914 5913 5913 5912 5911 5910 5909 5908 5907 5906 5905 5903 5902 5901 5899 5898 5897 5895 5894 5893 5892 5890 5888 5887 5885 5884 5884 5883 5883 5882
5892 5895 5898 5901 5903 5905 5906 5909 5906 5906 5908 5908 5909 5910 5910 5911 5912 5911 5912 5911 5911 5911 5910 5909 5908 5907 5906 5905 5904 5903 5902 5901 5899 5898 5896 5895 5894 5892 5891 5890 5888 5886 5885 5883 5882 5882 5881 5880 5880
5887 5891 5895 5898 5899 5901 5903 5906 5900 5902 5905 5905 5906 5907 5907 5908 5909 5909 5909 5909 5909 5908 5908 5907 5906 5905 5904 5903 5902 5901 5900 5899 5897 5896 5894 5893 5891 5890 5889 5887 5886 5884 5883 5882 5881 5879 5879 5878 5877